Regional Weather Roundup
Issued by NWS

Home | Current Version | Previous Version | Graphics & Text | Print | Product List | Glossary On
Versions: 1 2 3 4 5 6 7 8 9 10 11 12 13 14 15 16 17 18 19 20 21 22 23 24 25 26 27 28 29 30 31 32 33 34 35 36 37 38 39 40 41 42 43 44 45 46 47 48 49 50
000
ASUS43 KDMX 192206
RWRIA

WEATHER ROUNDUP FOR IOWA
NATIONAL WEATHER SERVICE DES MOINES IA
500 PM CDT TUE SEP 19 2017

NOTE: "FAIR" INDICATES FEW OR NO CLOUDS BELOW 12,000 FEET WITH NO
SIGNIFICANT WEATHER AND/OR OBSTRUCTIONS TO VISIBILITY.

* - THESE STATIONS ARE NOT NWS STATIONS...THUS NOT UNDER NWS
QUALITY CONTROL.  THEY ALSO DO NOT REPORT WEATHER SUCH
AS PRECIPITATION OR FOG.

IAZ001>003-012>014-020>022-031>034-043>046-192300-
   NORTHWEST IOWA

CITY           SKY/WX    TMP DP  RH WIND       PRES   REMARKS
CARROLL *      SUNNY     84  68  58 SE22G31   29.66F HX  87
CHEROKEE *     MOSUNNY   81  69  68 SE18G26   29.62F HX  84
DENISON *      SUNNY     82  68  61 S16G36    29.65S HX  85
LE MARS *      CLOUDY    82  70  65 SE24G32   29.56F HX  86
ORANGE CITY *  CLOUDY    82  72  69 SE16G23   29.59F HX  87
SHELDON *      CLOUDY    79  68  69 SE21G30   29.59F HX  81
SIOUX CITY     CLOUDY    85  69  58 SE18G32   29.55F HX  89
SPENCER        SUNNY     80  68  66 SE28G37   29.63F HX  83
STORM LAKE *   SUNNY     81  68  65 SE20G36   29.65F HX  83
$$

IAZ055>058-069>071-079>083-090>094-192300-
   SOUTHWEST IOWA

CITY           SKY/WX    TMP DP  RH WIND       PRES   REMARKS
ATLANTIC *     SUNNY     84  68  58 SE20G32   29.65F HX  87
AUDUBON *      SUNNY     82  70  65 SE20G29   29.68F HX  86
CLARINDA *     SUNNY     88  68  51 SE16G29   29.68F HX  91
COUNCIL BLFS * SUNNY     86  68  54 SE25G36   29.62F HX  89
CRESTON *      SUNNY     82 -29   1 SE25G32   29.73F
HARLAN  *      SUNNY     84  68  58 SE25G37   29.67F HX  87
LAMONI         SUNNY     84  67  56 S14G25    29.74F HX  86
RED OAK *      SUNNY     86  68  54 SE20G30   29.65F HX  89
SHENANDOAH *   SUNNY     88  68  51 SE20G26   29.64F HX  91
$$

IAZ047>049-059>061-072>074-084-192300-
   CENTRAL IOWA

CITY           SKY/WX    TMP DP  RH WIND       PRES   REMARKS
AMES           PTSUNNY   81  69  67 SE21G29   29.74F HX  84
ANKENY *       MOSUNNY   82  68  61 SE16G23   29.74F HX  85
BOONE *        CLOUDY    82  68  61 SE21G31   29.72F HX  85
CHARITON *     MOSUNNY   82  70  65 SE13G21   29.77F HX  86
DES MOINES     MOSUNNY   84  67  56 SE20G29   29.73F HX  86
GRINNELL*      SUNNY     80  66  63 SE16      29.80F HX  82
KNOXVILLE *    SUNNY     82  64  54 SE15G22   29.76F HX  84
MARSHALLTOWN   SUNNY     79  67  66 SE21G29   29.77F HX  81
NEWTON *       PTSUNNY   82  68  61 SE12G22   29.77F HX  85
PELLA *        MOSUNNY   83  63  50 SE12G18   29.78F HX  84
PERRY *          N/A     83  69  62 SE16G28   29.70F HX  86
$$

IAZ004>006-015-016-023>025-035-036-192300-
   NORTH CENTRAL IOWA

CITY           SKY/WX    TMP DP  RH WIND       PRES   REMARKS
ALGONA *       SUNNY     81  68  65 SE15G28   29.69F HX  83
CLARION *      MOSUNNY   81  68  65 SE22G31   29.73F HX  83
ESTHERVILLE    MOSUNNY   80  69  69 SE21G33   29.65F HX  83
FORT DODGE *   PTSUNNY   81  68  64 SE15G25   29.70F HX  84
MASON CITY     MOSUNNY   80  64  58 SE20G30   29.76F HX  82
FOREST CITY *    N/A     79  64  61 SE22G28   29.74F HX  81
IOWA FALLS *     N/A     80  67  63 SE16G23   29.76F HX  82
$$

IAZ007>011-017>019-026>030-037>042-050>054-066-192300-
   NORTHEAST IOWA

CITY           SKY/WX    TMP DP  RH WIND       PRES   REMARKS
CEDAR RAPIDS   SUNNY     80  64  58 SE15      29.83F HX  82
CHARLES CITY * SUNNY     79  64  61 SE15G24   29.80F HX  81
CLINTON *      MOSUNNY   78  66  66 SE10      29.89F HX  80
DECORAH *      SUNNY     79  63  57 SE10G21   29.82F HX  80
DUBUQUE        SUNNY     77  63  61 SE10      29.88F
MONTICELLO *   MOSUNNY   79  64  61 SE12      29.85F HX  81
OELWEIN *      SUNNY     79  64  61 SE17      29.83F HX  81
WATERLOO       SUNNY     78  62  57 SE17      29.79F HX  80
$$

IAZ064-065-067-068-078-192300-
   EAST CENTRAL IOWA

CITY           SKY/WX    TMP DP  RH WIND       PRES   REMARKS
DAVENPORT      MOSUNNY   78  65  63 SE9       29.89F HX  80
IOWA CITY      SUNNY     83  65  54 SE13      29.84F HX  85
MT. PLEASANT * SUNNY     83  63  50 SE9       29.84F HX  83
MUSCATINE *    MOSUNNY   84  64  51 SE9       29.84F HX  86
QUAD CITIES    SUNNY     81  65  58 E14       29.86F HX  83
$$

IAZ062-063-075>077-085>089-095>099-192300-
   SOUTHEAST IOWA

CITY           SKY/WX    TMP DP  RH WIND       PRES   REMARKS
BURLINGTON     SUNNY     81  67  62 SE8       29.85F HX  83
FAIRFIELD *    SUNNY     84  64  51 SE13      29.82F HX  86
FORT MADISON * SUNNY     84  68  58 E9        29.85F HX  87
KEOKUK *       SUNNY     84  66  54 SE9       29.83F HX  86
OSKALOOSA *      N/A     82  66  56 S13G20    29.80F HX  84
CENTERVILLE *    N/A     82  68  61 SE13      29.81F HX  85
OTTUMWA        SUNNY     82  67  60 SE14      29.80F HX  84
WASHINGTON *   SUNNY     82  64  54 SE10      29.84F HX  84
$$

ABBREVIATIONS USED IN REMARKS
   TC - TEMPERATURES IN CELSIUS
  WCI - WIND CHILL INDEX
   HX - HEAT INDEX
  VSB - VISIBILITY
$$





USA.gov is the U.S. government's official web portal to all federal, state and local government web resources and services.